,,Stat6,,Stat2,,Stat8,,Stat9,,Stat10,,Wind1,,Wind1,
time,status,PA1M_AVG,status,PR1M_SUM,status,RH1M_AVG,status,SR1M_AVG,status,TA1M_AVG,status,W1dAve1m,status,W1sAve1m,
2009-08-10, 00:00:00,VALID,916.136,VALID,0,VALID,100,VALID,-0.0169808,VALID,20.4212,VALID,10,VALID,0,
2009-08-10, 00:01:00,VALID,916.13,VALID,0,VALID,100,VALID,0,VALID,20.4177,VALID,15,VALID,0.000363372,
2009-08-10, 00:02:00,VALID,916.135,VALID,0,VALID,100,VALID,0.0169808,VALID,20.4245,VALID,26,VALID,0.0355114,
2009-08-10, 00:03:00,VALID,916.139,VALID,0,VALID,100,VALID,0.0169808,VALID,20.3947,VALID,17,VALID,0,
2009-08-10, 00:04:00,VALID,916.137,VALID,0,VALID,100,VALID,0.0169808,VALID,20.4012,VALID,20,VALID,0,
2009-08-10, 00:05:00,VALID,916.157,VALID,0,VALID,100,VALID,0.0339617,VALID,20.3942,VALID,29,VALID,0,
2009-08-10, 00:06:00,VALID,916.176,VALID,0,VALID,100,VALID,0.0509425,VALID,20.3975,VALID,29,VALID,0,
2009-08-10, 00:07:00,VALID,916.173,VALID,0,VALID,100,VALID,0.0169808,VALID,20.382,VALID,27,VALID,0,
2009-08-10, 00:08:00,VALID,916.153,VALID,0,VALID,100,VALID,0.0169808,VALID,20.3615,VALID,26,VALID,0,
2009-08-10, 00:09:00,VALID,916.112,VALID,0,VALID,100,VALID,0.0169808,VALID,20.3493,VALID,24,VALID,0,
2009-08-10, 00:10:00,VALID,916.074,VALID,0,VALID,100,VALID,0.0169808,VALID,20.3393,VALID,11,VALID,0,
2009-08-10, 00:11:00,VALID,916.015,VALID,0,VALID,100,VALID,0,VALID,20.3198,VALID,10,VALID,0,
2009-08-10, 00:12:00,VALID,915.96,VALID,0,VALID,100,VALID,0.0169808,VALID,20.3171,VALID,9,VALID,0,
2009-08-10, 00:13:00,VALID,915.931,VALID,0,VALID,100,VALID,0,VALID,20.3044,VALID,9,VALID,0,
2009-08-10, 00:14:00,VALID,915.911,VALID,0,VALID,100,VALID,0,VALID,20.3081,VALID,9,VALID,0,
2009-08-10, 00:15:00,VALID,915.902,VALID,0,VALID,100,VALID,0,VALID,20.2979,VALID,9,VALID,0,
2009-08-10, 00:16:00,VALID,915.918,VALID,0,VALID,100,VALID,0.0169808,VALID,20.2879,VALID,9,VALID,0,
2009-08-10, 00:17:00,VALID,915.939,VALID,0,VALID,100,VALID,-0.0509425,VALID,20.2852,VALID,9,VALID,0,
2009-08-10, 00:18:00,VALID,915.932,VALID,0,VALID,100,VALID,-0.0169808,VALID,20.2689,VALID,9,VALID,0,
2009-08-10, 00:19:00,VALID,915.93,VALID,0,VALID,100,VALID,-0.0169808,VALID,20.2622,VALID,9,VALID,0,
2009-08-10, 00:20:00,VALID,915.915,VALID,0,VALID,100,VALID,-0.0169808,VALID,20.2657,VALID,9,VALID,0,
2009-08-10, 00:21:00,VALID,915.912,VALID,0,VALID,100,VALID,-0.0169808,VALID,20.259,VALID,9,VALID,0,
2009-08-10, 00:22:00,VALID,915.88,VALID,0,VALID,100,VALID,0,VALID,20.2557,VALID,9,VALID,0,
2009-08-10, 00:23:00,VALID,915.865,VALID,0,VALID,100,VALID,0,VALID,20.2492,VALID,10,VALID,0,
2009-08-10, 00:24:00,VALID,915.848,VALID,0,VALID,100,VALID,0,VALID,20.253,VALID,10,VALID,0,
2009-08-10, 00:25:00,VALID,915.867,VALID,0,VALID,100,VALID,-0.0169808,VALID,20.253,VALID,10,VALID,0,
2009-08-10, 00:26:00,VALID,915.882,VALID,0,VALID,100,VALID,-0.0169808,VALID,20.233,VALID,11,VALID,0,
2009-08-10, 00:27:00,VALID,915.907,VALID,0,VALID,100,VALID,0,VALID,20.2365,VALID,19,VALID,0,
2009-08-10, 00:28:00,VALID,915.935,VALID,0,VALID,100,VALID,0,VALID,20.2395,VALID,19,VALID,0,
2009-08-10, 00:29:00,VALID,915.961,VALID,0,VALID,100,VALID,-0.0339617,VALID,20.233,VALID,30,VALID,0,
2009-08-10, 00:30:00,VALID,915.959,VALID,0,VALID,100,VALID,-0.0169808,VALID,20.2103,VALID,74,VALID,0,
2009-08-10, 00:31:00,VALID,915.947,VALID,0,VALID,100,VALID,-0.0509425,VALID,20.2008,VALID,82,VALID,0,
2009-08-10, 00:32:00,VALID,915.917,VALID,0,VALID,100,VALID,-0.0509425,VALID,20.1911,VALID,82,VALID,0,
2009-08-10, 00:33:00,VALID,915.89,VALID,0,VALID,100,VALID,-0.0169808,VALID,20.1811,VALID,82,VALID,0,
2009-08-10, 00:34:00,VALID,915.869,VALID,0,VALID,100,VALID,-0.0339617,VALID,20.1748,VALID,82,VALID,0,
2009-08-10, 00:35:00,VALID,915.851,VALID,0,VALID,100,VALID,-0.0169808,VALID,20.1618,VALID,82,VALID,0,
2009-08-10, 00:36:00,VALID,915.845,VALID,0,VALID,100,VALID,-0.0339617,VALID,20.1621,VALID,82,VALID,0,
2009-08-10, 00:37:00,VALID,915.837,VALID,0,VALID,100,VALID,0,VALID,20.1683,VALID,82,VALID,0,
2009-08-10, 00:38:00,VALID,915.833,VALID,0,VALID,100,VALID,-0.0679233,VALID,20.1618,VALID,82,VALID,0,
2009-08-10, 00:39:00,VALID,915.821,VALID,0,VALID,100,VALID,-0.0509425,VALID,20.1294,VALID,82,VALID,0,
2009-08-10, 00:40:00,VALID,915.803,VALID,0,VALID,100,VALID,-0.0509425,VALID,20.087,VALID,82,VALID,0,
2009-08-10, 00:41:00,VALID,915.776,VALID,0,VALID,100,VALID,-0.0679233,VALID,20.0775,VALID,82,VALID,0,
2009-08-10, 00:42:00,VALID,915.748,VALID,0,VALID,100,VALID,0.0509425,VALID,20.0605,VALID,82,VALID,0,
2009-08-10, 00:43:00,VALID,915.718,VALID,0,VALID,100,VALID,0.0849042,VALID,20.037,VALID,82,VALID,0,
2009-08-10, 00:44:00,VALID,915.706,VALID,0,VALID,100,VALID,0.0679233,VALID,20.0108,VALID,82,VALID,0,
2009-08-10, 00:45:00,VALID,915.688,VALID,0,VALID,100,VALID,0.0509425,VALID,20.0143,VALID,82,VALID,0,
2009-08-10, 00:46:00,VALID,915.689,VALID,0,VALID,100,VALID,0.0849042,VALID,19.9818,VALID,82,VALID,0,
2009-08-10, 00:47:00,VALID,915.671,VALID,0,VALID,100,VALID,0.0849042,VALID,19.9204,VALID,82,VALID,0,
2009-08-10, 00:48:00,VALID,915.673,VALID,0,VALID,100,VALID,0,VALID,19.8593,VALID,82,VALID,0,
2009-08-10, 00:49:00,VALID,915.663,VALID,0,VALID,100,VALID,0,VALID,19.8011,VALID,82,VALID,0,
2009-08-10, 00:50:00,VALID,915.646,VALID,0,VALID,100,VALID,-0.0169808,VALID,19.753,VALID,82,VALID,0,
2009-08-10, 00:51:00,VALID,915.628,VALID,0,VALID,100,VALID,-0.0339617,VALID,19.73,VALID,82,VALID,0,
2009-08-10, 00:52:00,VALID,915.597,VALID,0,VALID,100,VALID,-0.0339617,VALID,19.7138,VALID,82,VALID,0,
2009-08-10, 00:53:00,VALID,915.585,VALID,0,VALID,100,VALID,-0.0169808,VALID,19.756,VALID,80,VALID,0,
2009-08-10, 00:54:00,VALID,915.555,VALID,0,VALID,100,VALID,-0.0339617,VALID,19.8079,VALID,79,VALID,0,
2009-08-10, 00:55:00,VALID,915.544,VALID,0,VALID,100,VALID,0,VALID,19.8568,VALID,79,VALID,0,
2009-08-10, 00:56:00,VALID,915.531,VALID,0,VALID,100,VALID,-0.0169808,VALID,19.876,VALID,79,VALID,0,
2009-08-10, 00:57:00,VALID,915.543,VALID,0,VALID,100,VALID,-0.0679233,VALID,19.8888,VALID,79,VALID,0,
2009-08-10, 00:58:00,VALID,915.554,VALID,0,VALID,100,VALID,-0.0509425,VALID,19.8955,VALID,79,VALID,0,
2009-08-10, 00:59:00,VALID,915.59,VALID,0,VALID,100,VALID,-0.0339617,VALID,19.902,VALID,79,VALID,0,
2009-08-10, 01:00:00,VALID,915.612,VALID,0,VALID,100,VALID,0,VALID,19.915,VALID,79,VALID,0,
2009-08-10, 01:01:00,VALID,915.647,VALID,0,VALID,100,VALID,-0.0169808,VALID,19.8663,VALID,74,VALID,0,
2009-08-10, 01:02:00,VALID,915.669,VALID,0,VALID,100,VALID,-0.0169808,VALID,19.7917,VALID,69,VALID,0,
2009-08-10, 01:03:00,VALID,915.698,VALID,0,VALID,100,VALID,0,VALID,19.7817,VALID,69,VALID,0,
2009-08-10, 01:04:00,VALID,915.722,VALID,0,VALID,100,VALID,0,VALID,19.7622,VALID,32,VALID,0,
2009-08-10, 01:05:00,VALID,915.735,VALID,0,VALID,100,VALID,0,VALID,19.8049,VALID,1,VALID,0,
2009-08-10, 01:06:00,VALID,915.758,VALID,0,VALID,100,VALID,-0.0169808,VALID,19.7622,VALID,2,VALID,0,
2009-08-10, 01:07:00,VALID,915.791,VALID,0,VALID,100,VALID,0,VALID,19.746,VALID,2,VALID,0,
2009-08-10, 01:08:00,VALID,915.825,VALID,0,VALID,100,VALID,0,VALID,19.723,VALID,3,VALID,0,
2009-08-10, 01:09:00,VALID,915.858,VALID,0,VALID,100,VALID,-0.0339617,VALID,19.7335,VALID,11,VALID,0,
2009-08-10, 01:10:00,VALID,915.884,VALID,0,VALID,100,VALID,-0.0169808,VALID,19.7105,VALID,13,VALID,0.031436,
2009-08-10, 01:11:00,VALID,915.897,VALID,0,VALID,100,VALID,0,VALID,19.7168,VALID,14,VALID,0,
2009-08-10, 01:12:00,VALID,915.908,VALID,0,VALID,100,VALID,-0.0169808,VALID,19.7006,VALID,17,VALID,0,
2009-08-10, 01:13:00,VALID,915.889,VALID,0,VALID,100,VALID,0,VALID,19.6938,VALID,24,VALID,0,
2009-08-10, 01:14:00,VALID,915.891,VALID,0,VALID,100,VALID,-0.0169808,VALID,19.7265,VALID,25,VALID,0,
2009-08-10, 01:15:00,VALID,915.907,VALID,0,VALID,100,VALID,-0.0169808,VALID,19.7198,VALID,20,VALID,0,
2009-08-10, 01:16:00,VALID,915.936,VALID,0,VALID,100,VALID,0.0169808,VALID,19.7195,VALID,18,VALID,0,
2009-08-10, 01:17:00,VALID,915.958,VALID,0,VALID,100,VALID,-0.0169808,VALID,19.7557,VALID,7,VALID,0.0651634,
2009-08-10, 01:18:00,VALID,915.996,VALID,0,VALID,100,VALID,-0.0169808,VALID,19.7882,VALID,19,VALID,0.401811,
2009-08-10, 01:19:00,VALID,916.028,VALID,0,VALID,100,VALID,0,VALID,19.8044,VALID,22,VALID,0.0247396,
2009-08-10, 01:20:00,VALID,916.047,VALID,0,VALID,100,VALID,0,VALID,19.8039,VALID,31,VALID,0.345117,
2009-08-10, 01:21:00,VALID,916.039,VALID,0,VALID,100,VALID,0,VALID,19.7976,VALID,18,VALID,0.513808,
2009-08-10, 01:22:00,VALID,916.049,VALID,0,VALID,100,VALID,0,VALID,19.8009,VALID,19,VALID,0,
2009-08-10, 01:23:00,VALID,916.035,VALID,0,VALID,100,VALID,0,VALID,19.7944,VALID,38,VALID,0.164789,
2009-08-10, 01:24:00,VALID,916.044,VALID,0,VALID,100,VALID,0,VALID,19.7752,VALID,23,VALID,0.0426962,
2009-08-10, 01:25:00,VALID,916.05,VALID,0,VALID,100,VALID,0,VALID,19.7452,VALID,13,VALID,0.015625,
2009-08-10, 01:26:00,VALID,916.053,VALID,0,VALID,100,VALID,-0.0169808,VALID,19.7425,VALID,3,VALID,0,
2009-08-10, 01:27:00,VALID,916.043,VALID,0,VALID,100,VALID,0,VALID,19.7258,VALID,39,VALID,0,
2009-08-10, 01:28:00,VALID,916.036,VALID,0,VALID,100,VALID,0,VALID,19.726,VALID,36,VALID,0,
2009-08-10, 01:29:00,VALID,916.004,VALID,0,VALID,100,VALID,0.0169808,VALID,19.7263,VALID,49,VALID,0.037064,
2009-08-10, 01:30:00,VALID,915.969,VALID,0,VALID,100,VALID,-0.0169808,VALID,19.71,VALID,16,VALID,0,
2009-08-10, 01:31:00,VALID,915.914,VALID,0,VALID,100,VALID,-0.0679233,VALID,19.6911,VALID,20,VALID,0,
2009-08-10, 01:32:00,VALID,915.868,VALID,0,VALID,100,VALID,0,VALID,19.6679,VALID,46,VALID,0,
2009-08-10, 01:33:00,VALID,915.804,VALID,0,VALID,100,VALID,-0.0169808,VALID,19.6576,VALID,51,VALID,0,
2009-08-10, 01:34:00,VALID,915.747,VALID,0,VALID,100,VALID,-0.0169808,VALID,19.6614,VALID,51,VALID,0,
2009-08-10, 01:35:00,VALID,915.732,VALID,0,VALID,100,VALID,-0.0169808,VALID,19.6454,VALID,51,VALID,0,
2009-08-10, 01:36:00,VALID,915.684,VALID,0,VALID,100,VALID,-0.0339617,VALID,19.6164,VALID,51,VALID,0,
2009-08-10, 01:37:00,VALID,915.658,VALID,0,VALID,100,VALID,-0.0169808,VALID,19.6,VALID,51,VALID,0,
2009-08-10, 01:38:00,VALID,915.625,VALID,0,VALID,100,VALID,-0.0679233,VALID,19.5937,VALID,51,VALID,0,
2009-08-10, 01:39:00,VALID,915.598,VALID,0,VALID,100,VALID,-0.0339617,VALID,19.5805,VALID,51,VALID,0,
2009-08-10, 01:40:00,VALID,915.557,VALID,0,VALID,100,VALID,0,VALID,19.564,VALID,51,VALID,0,
2009-08-10, 01:41:00,VALID,915.517,VALID,0,VALID,100,VALID,0,VALID,19.558,VALID,82,VALID,0,
2009-08-10, 01:42:00,VALID,915.492,VALID,0,VALID,100,VALID,0,VALID,19.5675,VALID,120,VALID,0,
2009-08-10, 01:43:00,VALID,915.451,VALID,0,VALID,100,VALID,0,VALID,19.5673,VALID,134,VALID,0,
2009-08-10, 01:44:00,VALID,915.421,VALID,0,VALID,100,VALID,-0.0169808,VALID,19.5158,VALID,137,VALID,0,
2009-08-10, 01:45:00,VALID,915.384,VALID,0,VALID,100,VALID,0,VALID,19.5094,VALID,158,VALID,0,
2009-08-10, 01:46:00,VALID,915.352,VALID,0,VALID,100,VALID,-0.0169808,VALID,19.5124,VALID,162,VALID,0,
2009-08-10, 01:47:00,VALID,915.318,VALID,0,VALID,100,VALID,-0.0679233,VALID,19.5094,VALID,163,VALID,0,
2009-08-10, 01:48:00,VALID,915.283,VALID,0,VALID,100,VALID,-0.0169808,VALID,19.4639,VALID,163,VALID,0,
2009-08-10, 01:49:00,VALID,915.254,VALID,0,VALID,100,VALID,-0.0339617,VALID,19.428,VALID,163,VALID,0,
2009-08-10, 01:50:00,VALID,915.217,VALID,0,VALID,100,VALID,0,VALID,19.4055,VALID,163,VALID,0,
2009-08-10, 01:51:00,VALID,915.178,VALID,0,VALID,100,VALID,0,VALID,19.4018,VALID,163,VALID,0,
2009-08-10, 01:52:00,VALID,915.146,VALID,0,VALID,100,VALID,0,VALID,19.408,VALID,162,VALID,0,
2009-08-10, 01:53:00,VALID,915.104,VALID,0,VALID,100,VALID,-0.0169808,VALID,19.4143,VALID,160,VALID,0,
2009-08-10, 01:54:00,VALID,915.063,VALID,0,VALID,100,VALID,-0.0339617,VALID,19.414,VALID,161,VALID,0,
2009-08-10, 01:55:00,VALID,915.039,VALID,0,VALID,100,VALID,0,VALID,19.4046,VALID,160,VALID,0,
2009-08-10, 01:56:00,VALID,915.005,VALID,0,VALID,100,VALID,0,VALID,19.418,VALID,150,VALID,0,
2009-08-10, 01:57:00,VALID,914.992,VALID,0,VALID,100,VALID,-0.0679233,VALID,19.3958,VALID,145,VALID,0,
2009-08-10, 01:58:00,VALID,915,VALID,0,VALID,100,VALID,-0.101885,VALID,19.387,VALID,145,VALID,0,
2009-08-10, 01:59:00,VALID,915.017,VALID,0,VALID,100,VALID,-0.118866,VALID,19.3938,VALID,145,VALID,0,
2009-08-10, 02:00:00,VALID,915.034,VALID,0,VALID,100,VALID,-0.101885,VALID,19.3773,VALID,140,VALID,0,
2009-08-10, 02:01:00,VALID,915.029,VALID,0,VALID,100,VALID,-0.101885,VALID,19.3606,VALID,140,VALID,0,
2009-08-10, 02:02:00,VALID,915.031,VALID,0,VALID,100,VALID,-0.0679233,VALID,19.3416,VALID,147,VALID,0,
2009-08-10, 02:03:00,VALID,915.029,VALID,0,VALID,100,VALID,-0.0849042,VALID,19.3089,VALID,153,VALID,0,
2009-08-10, 02:04:00,VALID,915.016,VALID,0,VALID,100,VALID,-0.0679233,VALID,19.2663,VALID,155,VALID,0,
2009-08-10, 02:05:00,VALID,914.988,VALID,0,VALID,100,VALID,-0.101885,VALID,19.2575,VALID,152,VALID,0,
2009-08-10, 02:06:00,VALID,914.962,VALID,0,VALID,100,VALID,-0.101885,VALID,19.2308,VALID,153,VALID,0,
2009-08-10, 02:07:00,VALID,914.917,VALID,0,VALID,100,VALID,-0.118866,VALID,19.2341,VALID,154,VALID,0,
2009-08-10, 02:08:00,VALID,914.868,VALID,0,VALID,100,VALID,-0.118866,VALID,19.2802,VALID,158,VALID,0,
2009-08-10, 02:09:00,VALID,914.815,VALID,0,VALID,100,VALID,-0.101885,VALID,19.3024,VALID,163,VALID,0,
2009-08-10, 02:10:00,VALID,914.745,VALID,0,VALID,100,VALID,-0.101885,VALID,19.3286,VALID,166,VALID,0,
2009-08-10, 02:11:00,VALID,914.712,VALID,0,VALID,100,VALID,-0.101885,VALID,19.3381,VALID,166,VALID,0,
2009-08-10, 02:12:00,VALID,914.653,VALID,0,VALID,100,VALID,-0.0849042,VALID,19.3316,VALID,166,VALID,0,
2009-08-10, 02:13:00,VALID,914.617,VALID,0,VALID,100,VALID,-0.118866,VALID,19.2957,VALID,166,VALID,0,
2009-08-10, 02:14:00,VALID,914.586,VALID,0,VALID,100,VALID,-0.0509425,VALID,19.2725,VALID,166,VALID,0,
2009-08-10, 02:15:00,VALID,914.56,VALID,0,VALID,100,VALID,-0.101885,VALID,19.2568,VALID,166,VALID,0,
2009-08-10, 02:16:00,VALID,914.562,VALID,0,VALID,100,VALID,-0.101885,VALID,19.247,VALID,166,VALID,0,
2009-08-10, 02:17:00,VALID,914.554,VALID,0,VALID,100,VALID,-0.101885,VALID,19.2338,VALID,166,VALID,0,
2009-08-10, 02:18:00,VALID,914.572,VALID,0,VALID,100,VALID,-0.0849042,VALID,19.2208,VALID,159,VALID,0,
2009-08-10, 02:19:00,VALID,914.593,VALID,0,VALID,100,VALID,-0.0849042,VALID,19.1592,VALID,144,VALID,0,
2009-08-10, 02:20:00,VALID,914.619,VALID,0,VALID,100,VALID,-0.0679233,VALID,19.1365,VALID,144,VALID,0,
2009-08-10, 02:21:00,VALID,914.648,VALID,0,VALID,100,VALID,-0.0679233,VALID,19.0973,VALID,144,VALID,0,
2009-08-10, 02:22:00,VALID,914.671,VALID,0,VALID,100,VALID,-0.101885,VALID,19.0973,VALID,144,VALID,0,
2009-08-10, 02:23:00,VALID,914.672,VALID,0,VALID,100,VALID,-0.101885,VALID,19.0848,VALID,144,VALID,0,
2009-08-10, 02:24:00,VALID,914.656,VALID,0,VALID,100,VALID,-0.0679233,VALID,19.0883,VALID,144,VALID,0,
2009-08-10, 02:25:00,VALID,914.644,VALID,0,VALID,100,VALID,-0.0849042,VALID,19.0779,VALID,144,VALID,0,
2009-08-10, 02:26:00,VALID,914.633,VALID,0,VALID,100,VALID,-0.0679233,VALID,19.0584,VALID,144,VALID,0,
2009-08-10, 02:27:00,VALID,914.652,VALID,0,VALID,100,VALID,-0.101885,VALID,19.0788,VALID,143,VALID,0,
2009-08-10, 02:28:00,VALID,914.671,VALID,0,VALID,100,VALID,-0.118866,VALID,19.0816,VALID,129,VALID,0,
2009-08-10, 02:29:00,VALID,914.716,VALID,0,VALID,100,VALID,-0.101885,VALID,19.1275,VALID,126,VALID,0,
2009-08-10, 02:30:00,VALID,914.758,VALID,0,VALID,100,VALID,-0.101885,VALID,19.1268,VALID,119,VALID,0,
2009-08-10, 02:31:00,VALID,914.8,VALID,0,VALID,100,VALID,-0.0849042,VALID,19.156,VALID,116,VALID,0,
2009-08-10, 02:32:00,VALID,914.827,VALID,0,VALID,100,VALID,-0.0849042,VALID,19.1168,VALID,116,VALID,0,
2009-08-10, 02:33:00,VALID,914.839,VALID,0,VALID,100,VALID,-0.101885,VALID,19.0616,VALID,116,VALID,0,
2009-08-10, 02:34:00,VALID,914.835,VALID,0,VALID,100,VALID,-0.101885,VALID,19.0843,VALID,116,VALID,0,
2009-08-10, 02:35:00,VALID,914.829,VALID,0,VALID,100,VALID,-0.101885,VALID,19.121,VALID,116,VALID,0,
2009-08-10, 02:36:00,VALID,914.82,VALID,0,VALID,100,VALID,-0.101885,VALID,19.14,VALID,116,VALID,0,
2009-08-10, 02:37:00,VALID,914.823,VALID,0,VALID,100,VALID,-0.101885,VALID,19.1562,VALID,116,VALID,0,
2009-08-10, 02:38:00,VALID,914.831,VALID,0,VALID,100,VALID,-0.101885,VALID,19.1108,VALID,116,VALID,0,
2009-08-10, 02:39:00,VALID,914.849,VALID,0,VALID,100,VALID,-0.101885,VALID,19.1038,VALID,116,VALID,0,
2009-08-10, 02:40:00,VALID,914.86,VALID,0,VALID,100,VALID,-0.0509425,VALID,19.1689,VALID,116,VALID,0,
2009-08-10, 02:41:00,VALID,914.862,VALID,0,VALID,100,VALID,-0.0509425,VALID,19.1787,VALID,116,VALID,0,
2009-08-10, 02:42:00,VALID,914.851,VALID,0,VALID,100,VALID,-0.0169808,VALID,19.2229,VALID,116,VALID,0,
2009-08-10, 02:43:00,VALID,914.828,VALID,0,VALID,100,VALID,-0.0679233,VALID,19.2363,VALID,118,VALID,0,
2009-08-10, 02:44:00,VALID,914.809,VALID,0,VALID,100,VALID,-0.0509425,VALID,19.2104,VALID,125,VALID,0,
2009-08-10, 02:45:00,VALID,914.804,VALID,0,VALID,100,VALID,-0.0339617,VALID,19.1969,VALID,139,VALID,0,
2009-08-10, 02:46:00,VALID,914.797,VALID,0,VALID,100,VALID,-0.0169808,VALID,19.1839,VALID,152,VALID,0,
2009-08-10, 02:47:00,VALID,914.808,VALID,0,VALID,100,VALID,0,VALID,19.1383,VALID,152,VALID,0,
2009-08-10, 02:48:00,VALID,914.815,VALID,0,VALID,100,VALID,-0.0509425,VALID,19.0933,VALID,152,VALID,0,
2009-08-10, 02:49:00,VALID,914.803,VALID,0,VALID,100,VALID,-0.0169808,VALID,19.0574,VALID,151,VALID,0,
2009-08-10, 02:50:00,VALID,914.812,VALID,0,VALID,100,VALID,-0.0339617,VALID,19.0384,VALID,155,VALID,0,
2009-08-10, 02:51:00,VALID,914.807,VALID,0,VALID,100,VALID,-0.0339617,VALID,19.0053,VALID,156,VALID,0,
2009-08-10, 02:52:00,VALID,914.803,VALID,0,VALID,100,VALID,-0.0339617,VALID,19.0187,VALID,156,VALID,0,
2009-08-10, 02:53:00,VALID,914.807,VALID,0,VALID,100,VALID,-0.0169808,VALID,19.0153,VALID,155,VALID,0,
2009-08-10, 02:54:00,VALID,914.829,VALID,0,VALID,100,VALID,-0.0169808,VALID,19.0217,VALID,150,VALID,0,
2009-08-10, 02:55:00,VALID,914.845,VALID,0,VALID,100,VALID,-0.0509425,VALID,19.0282,VALID,143,VALID,0,
2009-08-10, 02:56:00,VALID,914.87,VALID,0,VALID,100,VALID,-0.0169808,VALID,19.0342,VALID,143,VALID,0.0012429,
2009-08-10, 02:57:00,VALID,914.871,VALID,0,VALID,100,VALID,0,VALID,19.0282,VALID,143,VALID,0.000558036,
2009-08-10, 02:58:00,VALID,914.863,VALID,0,VALID,100,VALID,-0.0169808,VALID,19.032,VALID,144,VALID,0,
2009-08-10, 02:59:00,VALID,914.859,VALID,0,VALID,100,VALID,-0.0849042,VALID,19.0347,VALID,144,VALID,0,
2009-08-10, 03:00:00,VALID,914.841,VALID,0,VALID,100,VALID,-0.0679233,VALID,19.0706,VALID,141,VALID,0,
2009-08-10, 03:01:00,VALID,914.811,VALID,0,VALID,100,VALID,-0.0509425,VALID,19.0804,VALID,141,VALID,0,
2009-08-10, 03:02:00,VALID,914.808,VALID,0,VALID,100,VALID,-0.0339617,VALID,19.0709,VALID,141,VALID,0,
2009-08-10, 03:03:00,VALID,914.806,VALID,0,VALID,100,VALID,-0.0169808,VALID,19.0736,VALID,141,VALID,0,
2009-08-10, 03:04:00,VALID,914.819,VALID,0,VALID,100,VALID,0,VALID,19.0734,VALID,141,VALID,0,
2009-08-10, 03:05:00,VALID,914.822,VALID,0,VALID,100,VALID,-0.0169808,VALID,19.0801,VALID,141,VALID,0,
2009-08-10, 03:06:00,VALID,914.82,VALID,0,VALID,100,VALID,-0.0169808,VALID,19.0834,VALID,141,VALID,0,
2009-08-10, 03:07:00,VALID,914.837,VALID,0,VALID,100,VALID,0,VALID,19.0734,VALID,141,VALID,0,
2009-08-10, 03:08:00,VALID,914.843,VALID,0,VALID,100,VALID,0,VALID,19.0477,VALID,141,VALID,0,
2009-08-10, 03:09:00,VALID,914.842,VALID,0,VALID,100,VALID,0,VALID,18.9599,VALID,141,VALID,0,
2009-08-10, 03:10:00,VALID,914.86,VALID,0,VALID,100,VALID,0,VALID,18.882,VALID,141,VALID,0,
2009-08-10, 03:11:00,VALID,914.882,VALID,0,VALID,100,VALID,-0.0509425,VALID,18.73,VALID,121,VALID,0,
2009-08-10, 03:12:00,VALID,914.916,VALID,0,VALID,100,VALID,-0.0339617,VALID,18.7752,VALID,91,VALID,0,
2009-08-10, 03:13:00,VALID,914.953,VALID,0,VALID,100,VALID,-0.0339617,VALID,18.7822,VALID,91,VALID,0,
2009-08-10, 03:14:00,VALID,914.972,VALID,0,VALID,100,VALID,0.0169808,VALID,18.8273,VALID,91,VALID,0,
2009-08-10, 03:15:00,VALID,914.973,VALID,0,VALID,100,VALID,-0.0169808,VALID,18.8141,VALID,91,VALID,0,
2009-08-10, 03:16:00,VALID,914.967,VALID,0,VALID,100,VALID,-0.0169808,VALID,18.7981,VALID,91,VALID,0,
2009-08-10, 03:17:00,VALID,914.955,VALID,0,VALID,100,VALID,-0.0339617,VALID,18.7822,VALID,91,VALID,0,
2009-08-10, 03:18:00,VALID,914.953,VALID,0,VALID,100,VALID,-0.0509425,VALID,18.7854,VALID,91,VALID,0,
2009-08-10, 03:19:00,VALID,914.957,VALID,0,VALID,100,VALID,-0.0339617,VALID,18.7692,VALID,91,VALID,0,
2009-08-10, 03:20:00,VALID,914.978,VALID,0,VALID,100,VALID,-0.0339617,VALID,18.6971,VALID,91,VALID,0,
2009-08-10, 03:21:00,VALID,915.022,VALID,0,VALID,100,VALID,0,VALID,18.5384,VALID,76,VALID,0,
2009-08-10, 03:22:00,VALID,915.063,VALID,0,VALID,100,VALID,-0.0169808,VALID,18.4925,VALID,42,VALID,0,
2009-08-10, 03:23:00,VALID,915.11,VALID,0,VALID,100,VALID,0,VALID,18.6225,VALID,35,VALID,0,
2009-08-10, 03:24:00,VALID,915.125,VALID,0,VALID,100,VALID,-0.0509425,VALID,18.7595,VALID,35,VALID,0,
2009-08-10, 03:25:00,VALID,915.161,VALID,0,VALID,100,VALID,0,VALID,18.7944,VALID,36,VALID,0,
2009-08-10, 03:26:00,VALID,915.178,VALID,0,VALID,100,VALID,0,VALID,18.7944,VALID,34,VALID,0,
2009-08-10, 03:27:00,VALID,915.193,VALID,0,VALID,100,VALID,-0.0339617,VALID,18.7979,VALID,15,VALID,0,
2009-08-10, 03:28:00,VALID,915.189,VALID,0,VALID,100,VALID,0,VALID,18.8169,VALID,353,VALID,0,
2009-08-10, 03:29:00,VALID,915.185,VALID,0,VALID,100,VALID,0.0169808,VALID,18.8331,VALID,14,VALID,0,
2009-08-10, 03:30:00,VALID,915.182,VALID,0,VALID,100,VALID,0,VALID,18.8493,VALID,45,VALID,0,
2009-08-10, 03:31:00,VALID,915.176,VALID,0,VALID,100,VALID,0,VALID,18.911,VALID,50,VALID,0,
2009-08-10, 03:32:00,VALID,915.203,VALID,0,VALID,100,VALID,0,VALID,18.9404,VALID,50,VALID,0,
2009-08-10, 03:33:00,VALID,915.205,VALID,0,VALID,100,VALID,0,VALID,18.9439,VALID,19,VALID,0,
2009-08-10, 03:34:00,VALID,915.182,VALID,0,VALID,100,VALID,0,VALID,18.9374,VALID,3,VALID,0,
2009-08-10, 03:35:00,VALID,915.143,VALID,0,VALID,100,VALID,0,VALID,18.9599,VALID,5,VALID,0,
2009-08-10, 03:36:00,VALID,915.127,VALID,0,VALID,100,VALID,-0.0169808,VALID,18.9207,VALID,40,VALID,0,
2009-08-10, 03:37:00,VALID,915.1,VALID,0,VALID,100,VALID,0,VALID,19.0183,VALID,49,VALID,0,
2009-08-10, 03:38:00,VALID,915.12,VALID,0,VALID,100,VALID,-0.0169808,VALID,19.0539,VALID,56,VALID,0,
2009-08-10, 03:39:00,VALID,915.148,VALID,0,VALID,100,VALID,-0.0169808,VALID,19.028,VALID,37,VALID,0,
2009-08-10, 03:40:00,VALID,915.175,VALID,0,VALID,100,VALID,0,VALID,18.9988,VALID,329,VALID,0,
2009-08-10, 03:41:00,VALID,915.187,VALID,0,VALID,100,VALID,-0.0339617,VALID,19.025,VALID,308,VALID,0,
2009-08-10, 03:42:00,VALID,915.182,VALID,0,VALID,100,VALID,0,VALID,19.0315,VALID,308,VALID,0,
2009-08-10, 03:43:00,VALID,915.192,VALID,0,VALID,100,VALID,0,VALID,19.0482,VALID,308,VALID,0,
2009-08-10, 03:44:00,VALID,915.197,VALID,0,VALID,100,VALID,-0.0169808,VALID,19.0579,VALID,41,VALID,0.0450149,
2009-08-10, 03:45:00,VALID,915.207,VALID,0,VALID,100,VALID,0,VALID,19.038,VALID,45,VALID,0.119271,
2009-08-10, 03:46:00,VALID,915.211,VALID,0,VALID,100,VALID,0,VALID,19.0419,VALID,66,VALID,0,
2009-08-10, 03:47:00,VALID,915.232,VALID,0,VALID,100,VALID,0,VALID,19.0357,VALID,77,VALID,0,
2009-08-10, 03:48:00,VALID,915.252,VALID,0,VALID,100,VALID,0.0169808,VALID,19.0032,VALID,35,VALID,0,
2009-08-10, 03:49:00,VALID,915.259,VALID,0,VALID,100,VALID,-0.0169808,VALID,18.9606,VALID,9,VALID,0,
2009-08-10, 03:50:00,VALID,915.269,VALID,0,VALID,100,VALID,-0.0339617,VALID,18.9733,VALID,345,VALID,0,
2009-08-10, 03:51:00,VALID,915.271,VALID,0,VALID,100,VALID,-0.0339617,VALID,18.99,VALID,356,VALID,0,
2009-08-10, 03:52:00,VALID,915.246,VALID,0,VALID,100,VALID,0,VALID,19.0255,VALID,15,VALID,0,
2009-08-10, 03:53:00,VALID,915.234,VALID,0,VALID,100,VALID,-0.0169808,VALID,19.0487,VALID,16,VALID,0,
2009-08-10, 03:54:00,VALID,915.213,VALID,0,VALID,100,VALID,-0.0679233,VALID,19.0289,VALID,16,VALID,0,
2009-08-10, 03:55:00,VALID,915.177,VALID,0,VALID,100,VALID,-0.0509425,VALID,19,VALID,16,VALID,0,